Track STARLINK-3117 now! 10-day predictions STARLINK-3117 is classified as:
1 49435U 21104AD 22148.58334491 -.00060972 00000-0 -38416-2 0 9997 2 49435 53.2155 289.1579 0001933 42.0391 237.4301 15.08876378 1301